Back to catalog

STARLINK-32804

AliveCommunicationsVLEO
NORAD 62846·PAYLOAD·🇺🇸 United States

Launched Jan 27, 2025 from Cape Canaveral Space Force Station

Loading…

Next Passes (next 24 hours)

TLE

FreshSource: CelesTrak SupGP

Epoch: Sep 15, 2026, 03:50 UTC

1 62846C 25019T   26258.16020833 -.00000415  00000+0 -15022-4 0  2582
2 62846  43.0010  98.9917 0001231 273.1387 227.9598 15.27586023    19

Track STARLINK-32804 in real time with AllMySat

Download on the App Store